TimePDT,TemperatureF,Dew PointF,Humidity,Sea Level PressureIn,VisibilityMPH,Wind Direction,Wind SpeedMPH,Gust SpeedMPH,PrecipitationIn,Events,Conditions,WindDirDegrees,DateUTC
12:53 AM,57.0,52.0,83,30.10,6.0,NE,4.6,-,N/A,,Haze,40,2013-08-04 07:53:00
1:53 AM,57.0,52.0,83,30.09,6.0,Calm,Calm,-,N/A,,Haze,0,2013-08-04 08:53:00
2:53 AM,57.0,52.0,83,30.08,5.0,Calm,Calm,-,N/A,,Haze,0,2013-08-04 09:53:00
3:53 AM,55.9,52.0,87,30.09,4.0,Calm,Calm,-,N/A,,Overcast,0,2013-08-04 10:53:00
4:53 AM,55.9,52.0,87,30.08,3.0,NNW,4.6,-,N/A,,Overcast,340,2013-08-04 11:53:00
5:05 AM,55.4,51.8,88,30.08,2.5,NW,4.6,-,N/A,,Overcast,320,2013-08-04 12:05:00
5:41 AM,55.4,51.8,88,30.07,1.2,Calm,Calm,-,N/A,,Overcast,0,2013-08-04 12:41:00
5:51 AM,55.4,51.8,88,30.07,2.0,Calm,Calm,-,N/A,,Overcast,0,2013-08-04 12:51:00
5:53 AM,55.9,52.0,87,30.08,2.0,NNW,3.5,-,N/A,,Overcast,330,2013-08-04 12:53:00
5:58 AM,55.4,51.8,88,30.07,1.2,Calm,Calm,-,N/A,,Overcast,0,2013-08-04 12:58:00
6:12 AM,55.4,51.8,88,30.07,1.5,Calm,Calm,-,N/A,,Overcast,0,2013-08-04 13:12:00
6:21 AM,55.4,51.8,88,30.07,0.8,Calm,Calm,-,N/A,,Overcast,0,2013-08-04 13:21:00
6:44 AM,55.4,51.8,88,30.08,1.0,Calm,Calm,-,N/A,,Overcast,0,2013-08-04 13:44:00
6:53 AM,55.0,52.0,89,30.08,0.5,Calm,Calm,-,N/A,Fog,Fog,0,2013-08-04 13:53:00
7:04 AM,55.4,53.6,94,30.08,0.2,Calm,Calm,-,N/A,Fog,Fog,0,2013-08-04 14:04:00
7:14 AM,55.4,53.6,94,30.08,0.5,Calm,Calm,-,N/A,Fog,Fog,0,2013-08-04 14:14:00
7:53 AM,55.9,53.1,90,30.09,0.5,Calm,Calm,-,N/A,Fog,Fog,0,2013-08-04 14:53:00
8:45 AM,55.4,53.6,94,30.09,1.2,WNW,3.5,-,N/A,,Overcast,290,2013-08-04 15:45:00
8:53 AM,55.9,53.1,90,30.09,1.2,Calm,Calm,-,N/A,,Overcast,0,2013-08-04 15:53:00
9:02 AM,55.4,53.6,94,30.09,2.0,WSW,3.5,-,N/A,,Overcast,250,2013-08-04 16:02:00
9:15 AM,57.2,53.6,88,30.08,4.0,Calm,Calm,-,N/A,,Overcast,0,2013-08-04 16:15:00
9:53 AM,60.1,53.1,78,30.08,8.0,Calm,Calm,-,N/A,,Overcast,0,2013-08-04 16:53:00
10:53 AM,64.9,55.0,70,30.07,8.0,Calm,Calm,-,N/A,,Scattered Clouds,0,2013-08-04 17:53:00
11:53 AM,72.0,57.0,59,30.06,8.0,Variable,4.6,-,N/A,,Clear,0,2013-08-04 18:53:00
12:53 PM,68.0,55.0,63,30.06,8.0,WSW,8.1,-,N/A,,Clear,250,2013-08-04 19:53:00
1:53 PM,71.1,55.9,59,30.05,9.0,SW,9.2,-,N/A,,Clear,230,2013-08-04 20:53:00
2:53 PM,71.1,55.9,59,30.04,9.0,SW,9.2,-,N/A,,Clear,230,2013-08-04 21:53:00
3:53 PM,75.0,57.0,53,30.03,8.0,WNW,8.1,-,N/A,,Clear,290,2013-08-04 22:53:00
4:53 PM,71.1,57.0,61,30.02,8.0,WNW,8.1,-,N/A,,Clear,300,2013-08-04 23:53:00
5:53 PM,70.0,55.9,61,30.01,8.0,NNW,9.2,-,N/A,,Clear,330,2013-08-05 00:53:00
6:53 PM,68.0,55.9,65,30.01,8.0,NW,6.9,-,N/A,,Clear,310,2013-08-05 01:53:00
7:53 PM,63.0,54.0,72,30.01,8.0,NW,5.8,-,N/A,,Clear,310,2013-08-05 02:53:00
8:53 PM,57.9,52.0,81,30.02,6.0,NW,5.8,-,N/A,,Haze,320,2013-08-05 03:53:00
9:30 PM,57.2,51.8,82,30.03,7.0,NNW,4.6,-,N/A,,Scattered Clouds,330,2013-08-05 04:30:00
9:40 PM,57.2,51.8,82,30.03,7.0,NNW,3.5,-,N/A,,Mostly Cloudy,330,2013-08-05 04:40:00
9:53 PM,57.0,52.0,83,30.03,7.0,NW,4.6,-,N/A,,Overcast,310,2013-08-05 04:53:00
10:15 PM,57.2,51.8,82,30.03,6.0,NW,6.9,-,N/A,,Haze,320,2013-08-05 05:15:00
10:53 PM,55.9,52.0,87,30.03,5.0,WNW,6.9,-,N/A,,Overcast,300,2013-08-05 05:53:00
11:45 PM,55.4,51.8,88,30.03,2.0,NW,4.6,-,N/A,,Overcast,320,2013-08-05 06:45:00
11:53 PM,55.0,52.0,89,30.03,1.8,NW,4.6,-,N/A,,Overcast,310,2013-08-05 06:53:00